Location: Betra
(48.4113°N, 8.6634°E)
Time: 20:49:09
(UTC+00:00)

Cosmos 1570 Rocket - Pass Details

Date: 23 May 2024
Orbit: 761 x 786 km, 74.1° (Epoch: 16 June)

Event Time Altitude Azimuth Distance (km) Brightness Sun altitude
Rises 02:52:34 0° 333° (NNW) 3,266 7.5 -6.5°
Reaches altitude 10° 02:54:59 10° 329° (NNW) 2,338 6.7 -6.2°
Maximum altitude 03:00:08 54° 254° (WSW) 952 4.2 -5.6°
Drops below altitude 10° 03:05:18 10° 178° (S) 2,335 6.2 -4.9°
Sets 03:07:43 0° 174° (S) 3,261 6.9 -4.6°
